Location: Godiavel Galaoual
(15.2485°N, 12.6604°W)
Time: 04:44:19
(UTC+00:00)

Envisat - Pass Details

Date: 06 December 2021
Orbit: 764 x 766 km, 98.2° (Epoch: 28 January)

Event Time Altitude Azimuth Distance (km) Brightness Sun altitude
Rises 04:27:36 0° 43° (NE) 3,223 6.5 -36.4°
Reaches altitude 10° 04:31:08 10° 69° (ENE) 2,295 6.0 -35.5°
Maximum altitude 04:33:35 14° 98° (E) 2,055 5.9 -35.0°
Drops below altitude 10° 04:36:01 10° 127° (SE) 2,293 6.2 -34.4°
Sets 04:39:32 0° 153° (SSE) 3,217 6.8 -33.6°
